PD2BVG-13 Weather Reports


Display with metric or nautical units.
time (UTC)temp
F
wind
direction
speed
MPH
gust
MPH
rain 1hr
in
rain 24hr
in
rain mn
in
humidity
%
barometer
mb
20191020163318 56 4 5.0 13.0 0.00 0.00 0.00 85 1009.6
20191020162821 56 356 6.0 13.0 0.00 0.00 0.00 85 1009.7
20191020162316 56 31 4.0 11.0 0.00 0.00 0.00 85 1009.8
20191020161824 57 356 5.0 11.0 0.00 0.00 0.00 84 1009.7
20191020161308 57 25 4.0 12.0 0.00 0.00 0.00 84 1009.8
20191020160824 57 25 5.0 12.0 0.00 0.00 0.00 84 1009.7
20191020160309 57 21 6.0 10.0 0.00 0.00 0.00 84 1009.8
20191020155808 57 8 5.0 11.0 0.00 0.08 0.00 84 1009.9
20191020155313 57 17 4.0 11.0 0.00 0.08 0.00 84 1009.6
20191020154816 57 360 4.0 10.0 0.00 0.08 0.00 84 1009.5
20191020154319 57 20 4.0 10.0 0.00 0.08 0.00 83 1009.3
20191020153824 57 337 4.0 9.0 0.00 0.08 0.00 83 1009.4
20191020153306 57 22 5.0 9.0 0.00 0.08 0.00 83 1009.4
20191020152818 58 356 4.0 10.0 0.00 0.08 0.00 83 1009.2
20191020152306 58 339 6.0 10.0 0.00 0.08 0.00 83 1009.1
20191020151808 58 357 5.0 11.0 0.00 0.08 0.00 83 1009.2
20191020151321 58 53 6.0 12.0 0.00 0.08 0.00 83 1009.0
20191020150806 58 2 5.0 11.0 0.00 0.08 0.00 82 1009.0
20191020150312 58 12 5.0 11.0 0.00 0.08 0.00 82 1009.0
20191020145811 58 10 5.0 10.0 0.00 0.08 0.00 82 1008.8
20191020145316 58 26 6.0 12.0 0.00 0.08 0.00 82 1008.8
20191020144820 58 28 7.0 12.0 0.00 0.08 0.00 82 1008.9
20191020144325 58 25 6.0 10.0 0.00 0.08 0.00 81 1008.9
20191020143809 58 8 6.0 10.0 0.00 0.08 0.00 81 1009.1
20191020143313 58 346 6.0 11.0 0.00 0.08 0.00 81 1008.9
20191020142808 58 23 6.0 11.0 0.00 0.08 0.00 81 1008.9
20191020142315 58 34 4.0 11.0 0.00 0.08 0.00 82 1008.9
20191020141820 58 43 7.0 11.0 0.00 0.08 0.00 82 1008.8
20191020141318 58 25 4.0 9.0 0.00 0.08 0.00 83 1008.9
20191020140822 58 21 4.0 9.0 0.00 0.08 0.00 82 1008.7
20191020140327 58 351 4.0 11.0 0.00 0.08 0.00 82 1008.7
20191020135819 58 351 4.0 11.0 0.00 0.08 0.00 82 1008.8
20191020135323 58 43 5.0 9.0 0.00 0.08 0.00 83 1008.8
20191020134808 58 353 5.0 9.0 0.00 0.08 0.00 84 1008.9
20191020134311 58 19 3.0 8.0 0.00 0.08 0.00 84 1009.0
20191020133816 58 22 3.0 9.0 0.00 0.08 0.00 85 1009.0
20191020133313 58 38 3.0 10.0 0.00 0.08 0.00 85 1009.1
20191020132816 58 38 5.0 10.0 0.00 0.08 0.00 85 1009.0
20191020132324 58 76 4.0 9.0 0.00 0.08 0.00 85 1009.2
20191020131818 58 32 3.0 8.0 0.00 0.08 0.00 85 1009.2
20191020131322 58 53 4.0 9.0 0.00 0.08 0.00 86 1009.1
20191020130824 58 352 6.0 9.0 0.00 0.08 0.00 87 1009.0
20191020130328 57 355 5.0 8.0 0.00 0.08 0.00 87 1009.0
20191020125807 57 30 3.0 8.0 0.00 0.08 0.00 88 1009.0
20191020125313 57 38 3.0 8.0 0.00 0.08 0.00 89 1009.1
20191020124817 57 83 4.0 9.0 0.00 0.08 0.00 89 1009.1
20191020124321 57 29 4.0 9.0 0.00 0.08 0.00 90 1008.8
20191020123818 57 356 3.0 8.0 0.00 0.08 0.00 90 1008.9
20191020123322 57 29 3.0 8.0 0.00 0.08 0.00 91 1009.0
20191020122810 57 33 2.0 8.0 0.00 0.08 0.00 92 1009.0
20191020122323 56 23 3.0 8.0 0.00 0.08 0.00 92 1009.0
20191020121806 56 59 1.0 7.0 0.00 0.08 0.00 93 1008.8
20191020121310 56 21 0.0 8.0 0.00 0.08 0.00 93 1008.8
20191020120814 56 33 2.0 9.0 0.00 0.08 0.00 94 1008.9
20191020120318 56 30 3.0 9.0 0.00 0.08 0.00 94 1008.6
20191020115819 55 352 4.0 9.0 0.00 0.08 0.00 94 1008.9
20191020115323 55 4 1.0 8.0 0.00 0.08 0.00 95 1009.0
20191020114807 55 360 4.0 8.0 0.00 0.08 0.00 95 1009.0
20191020114322 55 360 2.0 6.0 0.00 0.08 0.00 95 1009.0
20191020113807 56 16 1.0 6.0 0.00 0.08 0.00 95 1009.1
20191020113305 56 357 0.0 4.0 0.00 0.08 0.00 96 1008.9
20191020112813 56 10 1.0 4.0 0.00 0.08 0.00 96 1008.8
20191020112316 56 342 0.0 1.0 0.00 0.08 0.00 96 1008.7
20191020111810 56 340 0.0 0.0 0.00 0.08 0.00 96 1008.7
20191020111314 56 337 0.0 0.0 0.00 0.08 0.00 96 1008.7
20191020110817 56 333 0.0 0.0 0.00 0.08 0.00 96 1008.7
20191020110315 55 272 0.0 0.0 0.00 0.08 0.00 96 1008.6
20191020105815 55 216 0.0 0.0 0.00 0.12 0.00 96 1008.7
20191020105320 55 214 0.0 0.0 0.00 0.12 0.00 96 1008.9
20191020104818 55 214 0.0 0.0 0.00 0.12 0.00 96 1008.9
20191020104322 55 214 0.0 0.0 0.00 0.12 0.00 96 1008.9
20191020103805 55 214 0.0 1.0 0.00 0.12 0.00 96 1008.9
20191020103319 55 214 0.0 0.0 0.00 0.12 0.00 96 1008.8
20191020102808 55 214 0.0 0.0 0.00 0.12 0.00 96 1008.8
20191020102312 55 214 0.0 0.0 0.00 0.12 0.00 96 1008.7
20191020101817 54 214 0.0 0.0 0.00 0.12 0.00 96 1008.7
20191020101321 54 214 0.0 0.0 0.00 0.12 0.00 96 1008.8
20191020100824 54 214 0.0 0.0 0.00 0.12 0.00 96 1008.9
20191020100327 54 214 0.0 0.0 0.00 0.12 0.00 96 1008.9
20191020095805 54 214 0.0 0.0 0.00 0.12 0.00 96 1008.7
20191020095309 54 214 0.0 0.0 0.00 0.12 0.00 96 1008.5
20191020094805 53 214 0.0 0.0 0.00 0.12 0.00 96 1008.6
20191020094308 53 212 0.0 0.0 0.00 0.12 0.00 96 1008.8
20191020093812 53 212 0.0 0.0 0.00 0.12 0.00 96 1008.8
20191020093308 53 212 0.0 0.0 0.00 0.12 0.00 96 1008.8
20191020092815 53 212 0.0 0.0 0.00 0.12 0.00 96 1008.8
20191020092320 53 212 0.0 0.0 0.00 0.12 0.00 96 1008.5
20191020091815 53 212 0.0 0.0 0.00 0.12 0.00 96 1008.6
20191020091318 53 212 0.0 0.0 0.00 0.12 0.00 96 1008.8
20191020090822 53 212 0.0 0.0 0.00 0.12 0.00 96 1008.7
20191020090327 53 213 0.0 0.0 0.00 0.12 0.00 96 1008.8
20191020085807 53 213 0.0 0.0 0.00 0.12 0.00 96 1008.8
20191020085321 52 213 0.0 0.0 0.00 0.12 0.00 96 1008.7
20191020084805 52 213 0.0 0.0 0.00 0.12 0.00 96 1008.6
20191020084309 52 213 0.0 0.0 0.00 0.12 0.00 96 1008.4
20191020083823 52 213 0.0 0.0 0.00 0.12 0.00 96 1008.4
20191020083306 52 213 0.0 0.0 0.00 0.12 0.00 96 1008.3
20191020082806 52 213 0.0 0.0 0.00 0.12 0.00 96 1008.1
20191020082310 52 213 0.0 0.0 0.00 0.12 0.00 96 1008.1
20191020081813 51 213 0.0 0.0 0.00 0.12 0.00 95 1008.1
20191020081317 51 213 0.0 0.0 0.00 0.12 0.00 95 1008.0
20191020080819 51 213 0.0 0.0 0.00 0.12 0.00 95 1008.0
20191020080313 51 213 0.0 0.0 0.00 0.12 0.00 95 1008.0
20191020075814 51 213 0.0 0.0 0.00 0.12 0.00 95 1007.9
20191020075318 51 213 0.0 0.0 0.00 0.12 0.00 95 1008.0
20191020074813 51 213 0.0 0.0 0.00 0.12 0.00 95 1008.0
20191020074316 50 213 0.0 0.0 0.00 0.12 0.00 95 1008.0
20191020073822 50 213 0.0 0.0 0.00 0.12 0.00 95 1008.0
20191020073316 50 213 0.0 0.0 0.00 0.12 0.00 95 1008.1
20191020072821 50 213 0.0 0.0 0.00 0.12 0.00 95 1008.0
20191020072309 50 213 0.0 0.0 0.00 0.12 0.00 95 1007.9
20191020071824 50 213 0.0 0.0 0.00 0.12 0.00 95 1007.8
20191020071307 50 213 0.0 0.0 0.00 0.12 0.00 95 1007.9
20191020070810 50 213 0.0 0.0 0.00 0.12 0.00 95 1007.9
20191020070326 50 213 0.0 0.0 0.00 0.12 0.00 95 1007.8
20191020065806 50 213 0.0 0.0 0.00 0.12 0.00 95 1007.7
20191020065312 50 213 0.0 0.0 0.00 0.12 0.00 95 1007.7
20191020064807 50 213 0.0 0.0 0.00 0.12 0.00 95 1007.7
20191020064310 50 213 0.0 0.0 0.00 0.12 0.00 95 1007.6
20191020063814 50 213 0.0 0.0 0.00 0.12 0.00 95 1007.4
20191020063310 50 213 0.0 0.0 0.00 0.12 0.00 95 1007.3
20191020062814 50 213 0.0 0.0 0.00 0.12 0.00 94 1007.3
20191020062322 50 213 0.0 0.0 0.00 0.12 0.00 94 1007.2
20191020061819 50 213 0.0 0.0 0.00 0.12 0.00 95 1007.2
20191020061323 50 213 0.0 0.0 0.00 0.12 0.00 95 1007.2
20191020060806 50 213 0.0 0.0 0.00 0.12 0.00 95 1007.2
20191020060322 50 213 0.0 0.0 0.00 0.12 0.00 95 1007.3
20191020055824 50 213 0.0 0.0 0.00 0.12 0.00 95 1007.2
20191020055307 50 213 0.0 0.0 0.00 0.12 0.00 95 1007.2
20191020054822 50 213 0.0 0.0 0.00 0.12 0.00 94 1007.2
20191020054306 50 213 0.0 0.0 0.00 0.12 0.00 94 1007.3
20191020053810 50 213 0.0 0.0 0.00 0.12 0.00 94 1007.2
20191020053314 50 213 0.0 0.0 0.00 0.12 0.00 94 1007.2
20191020052818 50 213 0.0 0.0 0.00 0.12 0.00 94 1007.3
20191020052317 50 213 0.0 3.0 0.00 0.12 0.00 94 1007.3
20191020051821 50 214 0.0 1.0 0.00 0.12 0.00 94 1007.3
20191020051325 50 227 0.0 0.0 0.00 0.12 0.00 94 1007.5
20191020050819 50 227 0.0 0.0 0.00 0.12 0.00 94 1007.4
20191020050322 50 227 0.0 0.0 0.00 0.12 0.00 94 1007.2
20191020045815 50 227 0.0 0.0 0.00 0.12 0.00 94 1007.2
20191020045318 50 227 0.0 0.0 0.00 0.12 0.00 94 1007.3
20191020044822 50 227 0.0 0.0 0.00 0.12 0.00 94 1007.3
20191020044326 50 227 0.0 0.0 0.00 0.12 0.00 94 1007.2
20191020043809 50 227 0.0 0.0 0.00 0.12 0.00 94 1007.2
20191020043313 50 227 0.0 0.0 0.00 0.12 0.00 94 1007.0
20191020042817 50 227 0.0 0.0 0.00 0.12 0.00 93 1006.9
20191020042306 50 227 0.0 0.0 0.00 0.12 0.00 93 1006.8
20191020041819 50 227 0.0 0.0 0.00 0.12 0.00 93 1006.8
20191020041324 50 227 0.0 0.0 0.00 0.12 0.00 93 1006.6
20191020040807 50 227 0.0 0.0 0.00 0.12 0.00 93 1006.6
20191020040322 50 227 0.0 0.0 0.00 0.12 0.00 93 1006.5
20191020035822 50 227 0.0 0.0 0.00 0.12 0.00 93 1006.5
20191020035326 50 227 0.0 0.0 0.00 0.12 0.00 93 1006.4
20191020034823 50 227 0.0 0.0 0.00 0.12 0.00 93 1006.5
20191020034307 51 227 0.0 0.0 0.00 0.12 0.00 93 1006.5
20191020033810 51 227 0.0 0.0 0.00 0.12 0.00 93 1006.6
20191020033308 51 227 0.0 0.0 0.00 0.12 0.00 93 1006.6
20191020032810 51 227 0.0 0.0 0.00 0.12 0.00 93 1006.6
20191020032320 51 227 0.0 0.0 0.00 0.12 0.00 93 1006.5
20191020031813 51 227 0.0 0.0 0.00 0.12 0.00 93 1006.5
20191020031318 51 227 0.0 0.0 0.00 0.12 0.00 93 1006.5
20191020030821 51 227 0.0 0.0 0.00 0.12 0.00 93 1006.5
20191020030317 51 228 0.0 0.0 0.00 0.12 0.00 93 1006.4
20191020025816 51 229 0.0 0.0 0.00 0.12 0.00 93 1006.3
20191020025321 51 229 0.0 0.0 0.00 0.12 0.00 93 1006.3
20191020024825 51 233 0.0 0.0 0.00 0.12 0.00 93 1006.2
20191020024308 51 237 0.0 0.0 0.00 0.12 0.00 93 1006.1
20191020023813 51 215 0.0 0.0 0.00 0.12 0.00 93 1006.1
20191020023326 51 215 0.0 0.0 0.00 0.12 0.00 93 1006.1
20191020022810 51 215 0.0 0.0 0.00 0.12 0.00 93 1006.1
20191020022308 51 215 0.0 0.0 0.00 0.12 0.00 93 1006.3
20191020021811 52 215 0.0 0.0 0.00 0.12 0.00 93 1006.3
20191020021315 52 212 0.0 0.0 0.00 0.12 0.00 93 1006.3
20191020020812 52 212 0.0 0.0 0.00 0.12 0.00 93 1006.4
20191020020315 52 212 0.0 0.0 0.00 0.12 0.00 93 1006.4
20191020015808 52 210 0.0 0.0 0.00 0.12 0.00 93 1006.3
20191020015313 52 211 0.0 0.0 0.00 0.12 0.00 93 1006.2
20191020014817 52 212 0.0 0.0 0.00 0.12 0.00 93 1006.3
20191020014310 52 208 0.0 0.0 0.00 0.12 0.00 93 1006.2
20191020013814 52 219 0.0 0.0 0.00 0.12 0.00 93 1006.2
20191020013318 52 218 0.0 0.0 0.00 0.12 0.00 93 1006.3
20191020012815 52 221 0.0 1.0 0.00 0.12 0.00 93 1006.3
20191020012319 52 218 0.0 1.0 0.00 0.12 0.00 93 1006.3
20191020011807 52 233 0.0 0.0 0.00 0.12 0.00 93 1006.3
20191020011326 52 224 0.0 0.0 0.00 0.12 0.00 93 1006.4
20191020010809 52 225 0.0 0.0 0.00 0.12 0.00 93 1006.4
20191020010313 52 220 0.0 0.0 0.00 0.12 0.00 93 1006.3
20191020005823 52 218 0.0 0.0 0.00 0.12 0.00 93 1006.2
20191020005306 52 217 0.0 0.0 0.00 0.12 0.00 93 1006.2
20191020004811 52 221 0.0 0.0 0.00 0.12 0.00 93 1006.1
20191020004316 52 216 0.0 0.0 0.00 0.12 0.00 93 1006.2
20191020003818 52 216 0.0 0.0 0.00 0.12 0.00 93 1006.2
20191020003315 52 214 0.0 0.0 0.00 0.12 0.00 93 1006.3
20191020002819 52 216 0.0 0.0 0.00 0.12 0.00 93 1006.3
20191020002307 52 215 0.0 0.0 0.00 0.12 0.00 93 1006.4
20191020001821 52 216 0.0 0.0 0.00 0.12 0.00 93 1006.3
20191020001326 52 218 0.0 0.0 0.00 0.12 0.00 93 1006.4
20191020000810 52 214 0.0 0.0 0.00 0.12 0.00 93 1006.4
20191020000326 52 212 0.0 0.0 0.00 0.12 0.00 93 1006.4
20191019235806 52 211 0.0 1.0 0.00 0.12 0.00 93 1006.4
20191019235311 52 206 0.0 1.0 0.00 0.12 0.00 93 1006.3
20191019234815 52 220 0.0 5.0 0.00 0.12 0.00 93 1006.4
20191019234319 52 218 0.0 5.0 0.00 0.12 0.00 93 1006.4
20191019233816 52 204 0.0 0.0 0.00 0.12 0.00 93 1006.4
20191019233320 52 201 0.0 0.0 0.00 0.12 0.00 93 1006.3
20191019232822 52 202 0.0 0.0 0.00 0.12 0.00 93 1006.3
20191019232319 52 225 0.0 0.0 0.00 0.12 0.00 93 1006.3
20191019231808 52 218 0.0 0.0 0.00 0.12 0.00 93 1006.2
20191019231312 52 214 0.0 1.0 0.00 0.12 0.00 93 1006.2
20191019230826 52 206 0.0 1.0 0.00 0.12 0.00 93 1006.2
20191019230310 52 200 0.0 0.0 0.00 0.12 0.00 93 1006.2
20191019225810 52 204 0.0 10.0 0.00 0.12 0.00 93 1006.2
20191019225313 52 218 1.0 10.0 0.00 0.12 0.00 93 1006.1
20191019224818 52 212 0.0 7.0 0.00 0.12 0.00 93 1006.1
20191019224313 52 201 0.0 1.0 0.00 0.12 0.00 93 1006.1
20191019223817 52 226 0.0 6.0 0.00 0.12 0.00 93 1006.1
20191019223321 52 208 0.0 6.0 0.00 0.12 0.00 93 1006.1
20191019222819 52 198 0.0 7.0 0.00 0.12 0.00 93 1006.0
20191019222307 52 200 1.0 10.0 0.00 0.12 0.00 93 1006.1
20191019221812 52 196 2.0 11.0 0.00 0.12 0.00 93 1006.0
20191019221308 52 210 0.0 3.0 0.00 0.12 0.00 93 1006.0
20191019220813 52 213 0.0 9.0 0.00 0.12 0.00 93 1006.0
20191019220341 52 200 1.0 9.0 0.00 0.12 0.00 93 1006.0
20191019215821 52 204 0.0 10.0 0.00 0.12 0.02 93 1005.9
20191019215325 52 198 0.0 10.0 0.00 0.12 0.02 93 1005.7
20191019214809 52 204 5.0 9.0 0.00 0.12 0.02 93 1005.8
20191019214324 52 202 1.0 10.0 0.00 0.12 0.02 93 1005.8
20191019213809 52 206 0.0 7.0 0.00 0.12 0.02 93 1005.7
20191019213313 52 205 5.0 8.0 0.00 0.12 0.02 93 1005.6
20191019212809 53 200 4.0 8.0 0.00 0.12 0.02 93 1005.5
20191019212312 53 208 4.0 9.0 0.00 0.12 0.02 93 1005.4
20191019211822 53 206 5.0 9.0 0.00 0.12 0.02 93 1005.4
20191019211325 53 220 5.0 8.0 0.00 0.12 0.02 93 1005.3
20191019210807 53 198 4.0 8.0 0.00 0.12 0.02 93 1005.3
20191019210312 52 209 5.0 9.0 0.00 0.12 0.02 93 1005.2
20191019205814 53 208 4.0 7.0 0.00 0.12 0.02 93 1005.2
20191019205318 52 229 4.0 8.0 0.00 0.12 0.02 93 1005.1
20191019204821 53 206 4.0 8.0 0.00 0.12 0.02 93 1005.1
20191019204316 53 206 5.0 8.0 0.00 0.12 0.02 93 1005.0
20191019203820 53 204 5.0 9.0 0.00 0.12 0.02 93 1005.0
20191019203324 52 206 4.0 6.0 0.00 0.12 0.02 93 1005.0
20191019202820 52 212 5.0 7.0 0.00 0.12 0.02 93 1004.9
20191019202307 52 200 0.0 6.0 0.00 0.12 0.02 93 1005.0
20191019201810 52 214 2.0 6.0 0.00 0.12 0.02 93 1005.0
20191019201316 52 204 2.0 7.0 0.00 0.12 0.02 93 1005.0
20191019200818 52 211 4.0 8.0 0.00 0.12 0.02 93 1005.0
20191019200323 52 207 4.0 8.0 0.00 0.12 0.02 93 1004.9
20191019195822 52 205 4.0 7.0 0.00 0.12 0.02 93 1005.0
20191019195307 52 208 4.0 7.0 0.00 0.12 0.02 93 1005.0
20191019194823 52 206 4.0 7.0 0.00 0.12 0.02 93 1004.9
20191019194327 52 206 3.0 8.0 0.00 0.12 0.02 93 1004.8
20191019193810 52 204 5.0 8.0 0.00 0.12 0.02 93 1004.6
20191019193324 52 200 5.0 10.0 0.00 0.12 0.02 93 1004.6
20191019192807 52 201 5.0 10.0 0.00 0.12 0.02 93 1004.6
20191019192320 52 203 3.0 7.0 0.00 0.12 0.02 93 1004.6
20191019191808 52 204 4.0 6.0 0.00 0.12 0.02 93 1004.6
20191019191314 52 209 3.0 6.0 0.00 0.12 0.02 93 1004.6
20191019190818 52 208 2.0 6.0 0.00 0.12 0.02 93 1004.5
20191019190320 52 213 4.0 7.0 0.00 0.12 0.02 93 1004.5
20191019185810 52 209 4.0 7.0 0.00 0.35 0.02 93 1004.4
20191019185314 52 206 4.0 7.0 0.00 0.35 0.02 93 1004.4
20191019184818 52 205 3.0 6.0 0.00 0.35 0.02 92 1004.4
20191019184313 52 205 4.0 6.0 0.00 0.35 0.02 92 1004.4
20191019183817 52 206 3.0 6.0 0.00 0.35 0.02 92 1004.4
20191019183321 52 208 3.0 6.0 0.00 0.35 0.02 92 1004.3
20191019182819 52 209 2.0 6.0 0.00 0.35 0.02 92 1004.3
20191019182323 52 208 3.0 6.0 0.00 0.35 0.02 92 1004.4
20191019181809 52 206 4.0 6.0 0.00 0.35 0.02 92 1004.3
20191019181313 52 211 3.0 8.0 0.00 0.35 0.02 92 1004.3
20191019180816 52 207 3.0 8.0 0.00 0.35 0.02 92 1004.3
20191019180314 52 207 2.0 6.0 0.00 0.35 0.02 92 1004.4
20191019175814 52 210 3.0 6.0 0.00 0.39 0.02 92 1004.3
20191019175319 52 210 4.0 6.0 0.00 0.39 0.02 92 1004.4
20191019174813 52 208 3.0 7.0 0.00 0.39 0.02 91 1004.3
20191019174317 52 208 3.0 7.0 0.00 0.39 0.02 91 1004.3
20191019173822 52 202 4.0 7.0 0.00 0.39 0.02 91 1004.2
20191019173317 52 202 4.0 7.0 0.00 0.39 0.02 91 1004.2
20191019172821 52 202 4.0 7.0 0.00 0.39 0.02 91 1004.3
20191019172309 53 212 2.0 6.0 0.00 0.39 0.02 91 1004.2
20191019171825 53 209 4.0 6.0 0.00 0.39 0.02 90 1004.1
20191019171308 53 223 2.0 4.0 0.00 0.39 0.02 90 1004.0
20191019170811 53 223 2.0 5.0 0.00 0.39 0.02 90 1004.0
20191019165810 53 208 3.0 6.0 0.00 0.39 0.02 90 1003.9
20191019165313 53 207 4.0 6.0 0.00 0.39 0.02 90 1003.9
20191019164818 53 217 2.0 4.0 0.00 0.39 0.02 90 1003.9
20191019164322 53 218 2.0 4.0 0.04 0.39 0.02 90 1003.9
20191019163826 53 212 2.0 6.0 0.04 0.39 0.02 90 1003.9